SCP
0 0 0 0 0 0 0 0 0 0 0 0 0 0 0 0 0 0 0 0 0 0 0 0 0 1 1 2 4 3 1 1 0 0 0 0 0 0 0 0 0 0 0 0
0 0 0 0 0 0 0 0 0 0 0 0 0 0 0 0 0 0 0 0 0 0 0 0 0 1 2 3 3 2 2 1 0 0 0 0 0 0 0 0 0 0 0 0
0 0 0 0 0 0 0 0 0 0 0 0 0 0 0 0 0 0 0 0 0 0 0 0 0 1 2 3 4 2 2 2 0 0 0 0 0 0 0 0 0 0 0 0
0 0 0 0 0 0 0 0 0 0 0 0 0 0 0 0 0 0 0 0 0 0 0 0 1 2 2 3 3 3 2 0 0 0 0 0 0 0 0 0 0 0 0 0
0 0 0 0 0 0 0 0 0 0 0 0 0 0 0 0 0 0 0 0 0 0 0 0 1 2 2 2 2 2 1 0 0 0 0 0 0 0 0 0 0 0 0 0
0 0 0 0 0 0 0 0 0 0 0 0 0 0 0 0 0 0 0 0 0 0 0 0 0 2 1 1 1 1 1 0 0 0 0 0 0 0 0 1 0 0 0 0
0 0 0 0 0 0 0 0 0 0 0 0 0 0 0 0 0 0 0 0 0 0 0 0 1 1 1 1 1 0 0 0 0 0 0 0 0 0 0 0 0 0 0 0
0 0 0 0 0 0 0 0 0 0 0 0 0 0 0 0 0 0 0 0 0 0 0 1 1 1 0 0 0 0 0 0 0 0 0 0 0 0 0 0 -0 0 0 0
0 0 0 0 0 0 0 0 0 0 0 0 0 0 0 0 0 1 1 1 0 0 0 1 1 0 0 0 0 0 0 0 0 0 0 0 0 0 0 0 0 0 0 0
0 0 0 0 0 0 0 0 0 0 0 0 0 1 0 0 1 1 1 0 0 1 0 0 0 0 0 0 0 0 0 0 0 0 0 0 0 0 0 0 0 0 0 0
0 0 0 0 0 0 0 0 0 0 0 0 0 0 0 0 0 0 -0 0 -0 -0 0 0 0 0 0 0 0 0 0 0 0 0 0 0 0 0 0 0 0 0 0 0
0 0 0 0 0 0 0 0 0 0 0 0 0 0 0 0 1 0 0 0 0 0 0 0 0 0 0 0 0 0 0 0 0 0 0 0 0 0 0 0 0 0 0 0
0 0 0 0 0 0 0 0 0 0 0 0 0 0 0 0 0 0 0 0 0 0 0 0 0 -0 -0 0 0 0 0 0 0 0 0 0 0 0 0 0 0 0 0 0
0 0 0 0 0 0 0 0 0 0 0 0 0 0 0 0 0 0 0 0 0 0 0 0 0 0 0 0 0 0 0 0 0 0 0 0 0 0 0 0 0 0 0 0
0 0 0 0 0 0 0 0 0 0 0 0 0 0 0 0 0 0 0 0 0 0 0 0 0 -0 -0 -0 -0 -0 0 0 0 0 0 0 0 0 0 0 0 0 0 0
0 0 0 0 0 0 0 0 0 0 0 0 0 0 0 0 0 0 0 0 0 0 0 0 0 -0 -0 -0 0 0 0 0 0 0 0 0 0 0 0 0 0 0 0 0
0 0 0 0 0 0 0 0 0 0 0 0 0 0 0 0 0 0 0 0 0 0 0 0 0 0 0 0 0 0 0 0 0 0 0 0 0 0 0 0 0 0 0 0
0 0 0 0 0 0 0 0 0 0 0 0 0 0 0 0 0 0 0 0 0 0 0 0 0 0 0 0 0 0 0 0 0 0 0 0 0 0 0 0 0 0 0 0
0 0 0 0 0 0 0 0 0 0 0 0 0 0 0 0 0 0 0 0 0 0 0 0 0 0 0 0 0 0 0 0 0 0 0 0 0 0 0 0 0 0 0 0
0 0 0 0 0 0 0 0 0 0 0 0 0 0 0 0 0 0 0 0 0 0 0 0 0 0 0 0 0 0 0 0 0 0 0 0 0 0 0 0 0 0 0 0
0 0 0 0 0 0 0 0 0 0 0 0 0 0 0 0 0 0 0 0 0 0 0 0 0 0 0 0 0 0 0 0 0 0 0 0 0 0 0 0 0 0 0 0
0 0 0 0 0 0 0 0 0 0 -0 -0 -0 0 0 0 0 0 0 0 0 0 0 0 0 0 0 0 0 0 0 0 0 0 0 0 0 0 0 0 0 0 0 0
0 0 0 0 0 0 0 0 0 0 0 0 0 0 0 0 0 0 0 0 0 0 0 0 0 0 0 0 0 0 0 0 0 0 0 0 0 0 0 0 0 0 0 0
0 0 0 0 0 0 0 0 0 0 0 0 0 0 0 0 0 0 0 0 0 0 0 0 0 0 0 0 0 0 0 0 0 0 0 0 0 0 0 0 0 0 0 0
0 0 0 0 0 0 0 0 0 0 0 0 0 0 0 0 0 0 0 0 0 0 0 0 0 0 0 0 0 0 0 0 0 0 0 0 0 0 0 0 0 0 0 0
0 0 0 0 0 0 0 0 0 0 0 0 0 0 0 0 0 0 0 0 0 0 0 0 0 0 0 0 0 0 0 0 0 0 0 0 0 0 0 0 0 0 0 0
0 0 0 0 0 0 0 0 0 -0 0 0 0 0 0 0 0 0 0 0 0 0 0 0 0 0 0 0 0 0 0 0 0 0 0 0 0 0 0 0 0 0 0 0
Wind_Speed_500mb
36 31 13 14 13 13 18 21 21 17 21 20 26 26 40 67 63 66 74 78 88 96 96 96 98 101 104 109 114 115 114 107 102 96 81 65 55 40 37 37 35 39 32 26
25 20 29 21 32 23 32 6 9 13 14 16 31 12 18 56 62 65 67 69 70 71 80 85 89 95 97 100 107 112 116 114 107 85 68 67 53 46 42 40 45 47 40 31
34 12 13 10 18 21 13 10 10 12 21 13 7 16 37 60 75 79 68 60 58 59 59 57 60 70 86 92 95 102 109 109 97 89 88 63 60 60 46 45 47 53 45 36
22 13 14 12 5 23 21 6 5 10 8 19 26 70 60 55 91 70 52 43 37 29 23 25 33 49 66 80 88 93 97 101 103 85 84 60 66 63 50 52 48 53 44 38
12 13 6 7 10 10 8 5 10 5 3 10 19 28 8 36 47 53 51 41 33 23 12 17 30 39 48 66 76 82 87 94 88 71 73 52 63 57 58 57 52 46 43 40
4 14 11 5 15 36 22 6 14 13 10 11 23 16 5 28 34 37 32 32 26 11 19 20 27 37 46 59 70 76 81 76 70 60 49 57 60 58 61 59 45 54 47 48
7 9 4 11 34 20 14 10 18 16 27 42 13 15 29 21 22 25 25 20 8 13 19 25 31 38 43 51 59 66 68 71 67 64 58 69 77 65 52 40 60 55 47 45
5 8 5 38 14 12 4 11 35 39 52 63 49 43 38 35 27 20 14 15 22 21 39 38 44 49 46 47 49 54 54 62 62 55 53 48 46 44 24 35 61 46 52 49
3 9 8 19 13 26 20 51 56 68 57 60 60 54 48 41 33 27 22 16 30 36 44 54 62 58 48 47 43 43 48 49 55 44 36 31 23 26 41 29 38 54 44 46
4 2 8 15 29 33 42 51 51 51 47 51 47 40 37 34 39 38 35 40 46 43 59 57 60 51 46 44 40 37 36 43 37 22 14 31 36 52 37 32 41 36 39 38
5 6 9 19 38 41 38 28 31 33 35 32 19 19 18 44 59 53 40 47 50 43 50 35 38 30 29 31 37 39 26 27 13 20 20 30 49 49 35 35 39 37 30 26
8 19 25 12 27 36 44 36 38 38 31 29 36 33 14 6 27 23 15 23 34 30 25 22 30 33 32 31 29 27 28 39 22 47 40 55 39 28 27 38 38 27 21 19
18 44 57 42 34 43 47 44 36 39 34 30 31 27 22 21 23 19 26 21 22 15 11 35 26 13 23 20 24 32 34 27 20 31 42 38 38 35 32 28 17 17 19 22
44 45 46 35 42 47 43 41 31 29 27 30 31 25 25 20 18 22 30 25 14 20 25 21 16 15 18 20 21 17 18 26 19 21 28 36 32 30 29 17 15 19 21 18
61 56 50 42 39 35 30 22 19 20 19 20 24 29 31 29 21 22 30 18 26 25 23 23 20 25 25 22 20 20 20 23 21 16 18 24 27 24 18 18 20 20 19 13
47 43 37 36 31 29 29 28 27 28 28 29 31 33 33 34 26 21 30 20 29 37 32 21 21 21 24 28 28 19 27 22 17 15 16 19 18 17 21 21 23 22 15 12
25 39 32 29 27 27 27 27 28 32 33 31 33 36 39 39 32 22 20 20 24 24 23 19 20 23 28 33 31 22 25 27 19 17 20 20 20 22 19 19 21 19 17 16
26 21 17 16 19 22 22 22 27 34 38 36 34 34 38 38 27 16 11 11 22 27 21 19 24 24 34 33 27 23 17 14 16 21 22 24 23 18 16 20 25 26 22 19
15 11 14 17 17 19 24 28 29 32 27 29 37 45 42 29 13 3 10 14 18 20 22 28 24 26 23 19 15 12 11 13 15 18 21 19 19 18 19 22 24 22 20 18
9 6 8 10 13 17 17 12 13 13 18 23 17 24 17 12 10 5 7 5 6 8 11 19 20 21 16 14 13 13 16 20 20 20 18 19 19 18 19 19 19 18 20 22
28 23 21 20 18 16 10 14 13 16 17 14 17 19 13 13 9 6 10 3 4 10 12 10 13 13 12 13 12 11 16 18 15 12 13 12 13 15 19 21 19 17 19 22
21 22 23 24 22 22 15 16 17 19 15 10 10 12 7 4 7 9 9 9 7 5 7 5 5 7 9 8 9 14 16 18 18 17 18 18 20 21 22 23 22 18 19 24
18 20 24 27 29 26 21 17 18 15 13 12 12 11 10 9 9 9 6 7 6 8 9 5 3 5 7 7 7 11 17 14 14 20 24 27 28 29 29 26 24 24 25 25
17 20 21 23 23 19 23 18 23 15 11 11 11 11 13 13 8 6 6 8 11 6 9 1 2 2 8 12 15 20 25 26 28 31 25 23 24 24 24 26 30 29 23 24
20 15 13 22 25 12 11 20 21 19 17 16 13 12 16 17 13 6 6 4 8 10 9 13 13 13 13 15 17 21 21 26 21 18 20 20 20 22 25 34 34 30 26 25
22 20 24 22 25 18 7 10 16 21 14 16 18 15 16 16 8 8 9 15 19 20 20 21 19 21 22 20 23 23 25 26 22 29 23 23 27 29 26 27 38 37 33 29
23 26 31 20 16 17 17 11 14 17 13 17 23 21 23 23 21 20 22 22 19 21 23 28 32 29 30 25 25 27 25 23 22 24 26 29 32 28 26 19 18 33 33 31
Wind_Direction_500mb
227 217 193 234 227 198 189 192 181 212 194 211 206 198 203 208 212 204 209 212 219 223 226 232 235 235 236 237 236 235 233 227 225 225 228 225 222 225 232 230 222 237 233 238
228 215 200 222 245 223 225 181 115 131 223 218 210 168 162 196 199 204 205 210 213 220 227 232 239 240 241 241 240 240 236 231 223 224 230 224 223 227 225 228 229 232 238 242
229 175 174 223 222 199 171 152 155 147 219 155 168 192 196 203 202 202 202 207 214 220 229 238 249 252 248 246 243 243 242 230 227 225 222 217 231 232 223 228 232 237 240 248
215 108 203 242 286 159 121 109 52 269 239 183 190 202 207 204 192 194 188 184 186 195 216 244 260 260 258 251 249 248 245 233 226 229 225 223 219 231 231 234 237 241 246 255
148 173 176 356 18 319 132 195 192 188 259 192 166 152 115 193 186 173 173 177 181 175 221 259 266 264 264 256 252 248 247 238 229 239 221 221 219 235 232 238 244 248 250 259
142 138 179 275 344 341 305 29 6 61 48 115 136 157 245 177 178 174 172 169 169 207 242 266 287 279 268 258 251 253 247 239 235 233 237 224 231 242 241 246 253 253 252 263
21 98 151 4 324 308 70 238 11 102 115 104 91 112 79 130 143 149 159 177 217 303 289 292 291 295 280 261 252 247 240 232 227 220 226 225 233 244 254 275 263 257 267 281
38 63 11 355 4 83 239 64 99 88 93 95 92 82 70 66 65 54 40 0 309 283 286 278 292 276 267 259 251 241 234 225 216 219 222 226 232 237 208 323 274 270 270 279
164 186 272 319 58 78 91 88 82 79 74 73 70 61 51 36 27 12 359 329 296 303 300 284 262 258 257 248 239 229 220 215 211 217 226 245 245 267 278 216 246 274 276 287
114 316 276 62 76 78 74 74 72 68 69 69 63 49 31 6 359 3 346 332 317 315 310 300 264 247 246 232 217 210 204 201 205 237 296 283 260 242 240 266 260 265 270 270
90 72 161 65 83 79 68 74 54 51 43 27 8 10 335 323 324 309 308 325 320 320 306 276 237 216 197 178 179 174 176 200 168 244 268 252 228 232 251 262 245 262 254 266
158 191 110 109 94 105 88 72 80 69 69 69 65 57 41 311 277 281 286 282 309 325 306 226 184 163 159 137 138 146 166 165 221 238 226 230 237 249 251 235 252 250 263 264
141 109 96 96 96 93 97 92 79 93 86 60 60 48 33 22 3 325 301 290 292 305 204 170 161 155 149 165 178 178 202 211 211 231 228 236 241 252 254 249 243 265 281 287
116 105 80 94 84 89 91 96 89 83 63 50 40 33 28 11 351 6 347 289 249 179 161 160 174 188 179 178 187 195 204 216 218 221 230 241 239 249 243 230 277 281 287 282
96 99 102 93 84 74 69 64 48 32 13 358 358 359 6 13 14 359 341 282 226 188 193 185 183 177 167 163 156 169 188 202 209 201 205 220 226 211 224 247 258 269 264 259
89 82 74 63 45 29 17 9 1 346 334 338 334 327 334 344 353 358 342 297 219 199 200 182 182 189 179 179 177 210 208 193 200 226 253 214 214 236 255 240 258 252 242 247
70 43 38 32 16 360 347 333 323 318 320 320 317 323 321 319 332 335 333 254 217 200 182 200 181 198 186 193 221 228 216 219 218 222 227 232 239 249 229 243 250 235 221 209
49 41 18 356 344 335 323 307 302 304 305 308 314 320 316 323 313 309 320 250 223 220 218 222 236 226 218 235 224 219 216 230 231 233 234 234 243 232 241 251 229 213 210 211
20 4 351 340 328 323 323 324 314 303 301 311 310 307 303 298 283 327 220 204 217 245 249 217 219 218 214 210 217 239 253 242 237 238 230 223 221 238 235 225 214 218 234 234
31 1 354 359 346 348 354 355 344 338 329 321 336 341 317 275 276 254 193 221 268 247 230 208 226 231 233 253 258 258 247 254 251 221 224 236 239 231 220 222 235 259 256 255
66 65 51 37 37 13 12 13 2 357 6 24 29 24 2 341 319 200 156 133 201 178 207 236 240 239 236 257 271 253 211 208 216 235 238 220 214 226 235 241 256 262 248 256
50 39 36 31 26 25 31 21 27 31 46 47 41 45 40 293 267 221 209 160 161 190 142 150 215 233 251 250 267 254 240 231 231 236 227 240 248 244 246 255 262 264 260 267
40 34 29 24 19 13 14 15 20 37 34 29 37 34 23 351 308 284 294 271 197 153 137 77 167 208 227 233 229 223 230 245 252 257 259 260 254 254 253 255 253 256 270 265
356 355 3 13 11 10 29 32 29 34 19 14 10 8 7 1 332 287 270 243 212 200 204 149 148 200 251 255 262 267 275 279 286 287 277 253 248 246 244 246 249 258 258 245
3 11 6 350 347 356 357 10 16 22 20 6 347 355 349 327 325 319 290 250 253 264 267 252 251 239 245 267 265 272 285 304 275 242 248 275 285 287 265 250 249 250 258 251
343 351 353 3 6 4 352 329 332 332 324 360 3 343 339 343 323 302 296 314 290 274 276 268 270 271 259 272 266 287 285 301 260 236 246 275 286 288 285 271 252 242 245 247
336 333 327 336 321 345 341 346 2 350 326 317 318 325 325 312 316 295 287 290 295 281 279 272 276 272 270 272 274 271 275 285 263 237 254 274 284 280 277 298 274 256 246 243
Wind_Speed_850mb
36 31 13 14 13 13 18 21 21 17 21 20 26 26 40 67 63 66 74 78 88 96 96 96 98 101 104 109 114 115 114 107 102 96 81 65 55 40 37 37 35 39 32 26
25 20 29 21 32 23 32 6 9 13 14 16 31 12 18 56 62 65 67 69 70 71 80 85 89 95 97 100 107 112 116 114 107 85 68 67 53 46 42 40 45 47 40 31
34 12 13 10 18 21 13 10 10 12 21 13 7 16 37 60 75 79 68 60 58 59 59 57 60 70 86 92 95 102 109 109 97 89 88 63 60 60 46 45 47 53 45 36
22 13 14 12 5 23 21 6 5 10 8 19 26 70 60 55 91 70 52 43 37 29 23 25 33 49 66 80 88 93 97 101 103 85 84 60 66 63 50 52 48 53 44 38
12 13 6 7 10 10 8 5 10 5 3 10 19 28 8 36 47 53 51 41 33 23 12 17 30 39 48 66 76 82 87 94 88 71 73 52 63 57 58 57 52 46 43 40
4 14 11 5 15 36 22 6 14 13 10 11 23 16 5 28 34 37 32 32 26 11 19 20 27 37 46 59 70 76 81 76 70 60 49 57 60 58 61 59 45 54 47 48
7 9 4 11 34 20 14 10 18 16 27 42 13 15 29 21 22 25 25 20 8 13 19 25 31 38 43 51 59 66 68 71 67 64 58 69 77 65 52 40 60 55 47 45
5 8 5 38 14 12 4 11 35 39 52 63 49 43 38 35 27 20 14 15 22 21 39 38 44 49 46 47 49 54 54 62 62 55 53 48 46 44 24 35 61 46 52 49
3 9 8 19 13 26 20 51 56 68 57 60 60 54 48 41 33 27 22 16 30 36 44 54 62 58 48 47 43 43 48 49 55 44 36 31 23 26 41 29 38 54 44 46
4 2 8 15 29 33 42 51 51 51 47 51 47 40 37 34 39 38 35 40 46 43 59 57 60 51 46 44 40 37 36 43 37 22 14 31 36 52 37 32 41 36 39 38
5 6 9 19 38 41 38 28 31 33 35 32 19 19 18 44 59 53 40 47 50 43 50 35 38 30 29 31 37 39 26 27 13 20 20 30 49 49 35 35 39 37 30 26
8 19 25 12 27 36 44 36 38 38 31 29 36 33 14 6 27 23 15 23 34 30 25 22 30 33 32 31 29 27 28 39 22 47 40 55 39 28 27 38 38 27 21 19
18 44 57 42 34 43 47 44 36 39 34 30 31 27 22 21 23 19 26 21 22 15 11 35 26 13 23 20 24 32 34 27 20 31 42 38 38 35 32 28 17 17 19 22
44 45 46 35 42 47 43 41 31 29 27 30 31 25 25 20 18 22 30 25 14 20 25 21 16 15 18 20 21 17 18 26 19 21 28 36 32 30 29 17 15 19 21 18
61 56 50 42 39 35 30 22 19 20 19 20 24 29 31 29 21 22 30 18 26 25 23 23 20 25 25 22 20 20 20 23 21 16 18 24 27 24 18 18 20 20 19 13
47 43 37 36 31 29 29 28 27 28 28 29 31 33 33 34 26 21 30 20 29 37 32 21 21 21 24 28 28 19 27 22 17 15 16 19 18 17 21 21 23 22 15 12
25 39 32 29 27 27 27 27 28 32 33 31 33 36 39 39 32 22 20 20 24 24 23 19 20 23 28 33 31 22 25 27 19 17 20 20 20 22 19 19 21 19 17 16
26 21 17 16 19 22 22 22 27 34 38 36 34 34 38 38 27 16 11 11 22 27 21 19 24 24 34 33 27 23 17 14 16 21 22 24 23 18 16 20 25 26 22 19
15 11 14 17 17 19 24 28 29 32 27 29 37 45 42 29 13 3 10 14 18 20 22 28 24 26 23 19 15 12 11 13 15 18 21 19 19 18 19 22 24 22 20 18
9 6 8 10 13 17 17 12 13 13 18 23 17 24 17 12 10 5 7 5 6 8 11 19 20 21 16 14 13 13 16 20 20 20 18 19 19 18 19 19 19 18 20 22
28 23 21 20 18 16 10 14 13 16 17 14 17 19 13 13 9 6 10 3 4 10 12 10 13 13 12 13 12 11 16 18 15 12 13 12 13 15 19 21 19 17 19 22
21 22 23 24 22 22 15 16 17 19 15 10 10 12 7 4 7 9 9 9 7 5 7 5 5 7 9 8 9 14 16 18 18 17 18 18 20 21 22 23 22 18 19 24
18 20 24 27 29 26 21 17 18 15 13 12 12 11 10 9 9 9 6 7 6 8 9 5 3 5 7 7 7 11 17 14 14 20 24 27 28 29 29 26 24 24 25 25
17 20 21 23 23 19 23 18 23 15 11 11 11 11 13 13 8 6 6 8 11 6 9 1 2 2 8 12 15 20 25 26 28 31 25 23 24 24 24 26 30 29 23 24
20 15 13 22 25 12 11 20 21 19 17 16 13 12 16 17 13 6 6 4 8 10 9 13 13 13 13 15 17 21 21 26 21 18 20 20 20 22 25 34 34 30 26 25
22 20 24 22 25 18 7 10 16 21 14 16 18 15 16 16 8 8 9 15 19 20 20 21 19 21 22 20 23 23 25 26 22 29 23 23 27 29 26 27 38 37 33 29
23 26 31 20 16 17 17 11 14 17 13 17 23 21 23 23 21 20 22 22 19 21 23 28 32 29 30 25 25 27 25 23 22 24 26 29 32 28 26 19 18 33 33 31
Wind_Direction_850mb
227 217 193 234 227 198 189 192 181 212 194 211 206 198 203 208 212 204 209 212 219 223 226 232 235 235 236 237 236 235 233 227 225 225 228 225 222 225 232 230 222 237 233 238
228 215 200 222 245 223 225 181 115 131 223 218 210 168 162 196 199 204 205 210 213 220 227 232 239 240 241 241 240 240 236 231 223 224 230 224 223 227 225 228 229 232 238 242
229 175 174 223 222 199 171 152 155 147 219 155 168 192 196 203 202 202 202 207 214 220 229 238 249 252 248 246 243 243 242 230 227 225 222 217 231 232 223 228 232 237 240 248
215 108 203 242 286 159 121 109 52 269 239 183 190 202 207 204 192 194 188 184 186 195 216 244 260 260 258 251 249 248 245 233 226 229 225 223 219 231 231 234 237 241 246 255
148 173 176 356 18 319 132 195 192 188 259 192 166 152 115 193 186 173 173 177 181 175 221 259 266 264 264 256 252 248 247 238 229 239 221 221 219 235 232 238 244 248 250 259
142 138 179 275 344 341 305 29 6 61 48 115 136 157 245 177 178 174 172 169 169 207 242 266 287 279 268 258 251 253 247 239 235 233 237 224 231 242 241 246 253 253 252 263
21 98 151 4 324 308 70 238 11 102 115 104 91 112 79 130 143 149 159 177 217 303 289 292 291 295 280 261 252 247 240 232 227 220 226 225 233 244 254 275 263 257 267 281
38 63 11 355 4 83 239 64 99 88 93 95 92 82 70 66 65 54 40 0 309 283 286 278 292 276 267 259 251 241 234 225 216 219 222 226 232 237 208 323 274 270 270 279
164 186 272 319 58 78 91 88 82 79 74 73 70 61 51 36 27 12 359 329 296 303 300 284 262 258 257 248 239 229 220 215 211 217 226 245 245 267 278 216 246 274 276 287
114 316 276 62 76 78 74 74 72 68 69 69 63 49 31 6 359 3 346 332 317 315 310 300 264 247 246 232 217 210 204 201 205 237 296 283 260 242 240 266 260 265 270 270
90 72 161 65 83 79 68 74 54 51 43 27 8 10 335 323 324 309 308 325 320 320 306 276 237 216 197 178 179 174 176 200 168 244 268 252 228 232 251 262 245 262 254 266
158 191 110 109 94 105 88 72 80 69 69 69 65 57 41 311 277 281 286 282 309 325 306 226 184 163 159 137 138 146 166 165 221 238 226 230 237 249 251 235 252 250 263 264
141 109 96 96 96 93 97 92 79 93 86 60 60 48 33 22 3 325 301 290 292 305 204 170 161 155 149 165 178 178 202 211 211 231 228 236 241 252 254 249 243 265 281 287
116 105 80 94 84 89 91 96 89 83 63 50 40 33 28 11 351 6 347 289 249 179 161 160 174 188 179 178 187 195 204 216 218 221 230 241 239 249 243 230 277 281 287 282
96 99 102 93 84 74 69 64 48 32 13 358 358 359 6 13 14 359 341 282 226 188 193 185 183 177 167 163 156 169 188 202 209 201 205 220 226 211 224 247 258 269 264 259
89 82 74 63 45 29 17 9 1 346 334 338 334 327 334 344 353 358 342 297 219 199 200 182 182 189 179 179 177 210 208 193 200 226 253 214 214 236 255 240 258 252 242 247
70 43 38 32 16 360 347 333 323 318 320 320 317 323 321 319 332 335 333 254 217 200 182 200 181 198 186 193 221 228 216 219 218 222 227 232 239 249 229 243 250 235 221 209
49 41 18 356 344 335 323 307 302 304 305 308 314 320 316 323 313 309 320 250 223 220 218 222 236 226 218 235 224 219 216 230 231 233 234 234 243 232 241 251 229 213 210 211
20 4 351 340 328 323 323 324 314 303 301 311 310 307 303 298 283 327 220 204 217 245 249 217 219 218 214 210 217 239 253 242 237 238 230 223 221 238 235 225 214 218 234 234
31 1 354 359 346 348 354 355 344 338 329 321 336 341 317 275 276 254 193 221 268 247 230 208 226 231 233 253 258 258 247 254 251 221 224 236 239 231 220 222 235 259 256 255
66 65 51 37 37 13 12 13 2 357 6 24 29 24 2 341 319 200 156 133 201 178 207 236 240 239 236 257 271 253 211 208 216 235 238 220 214 226 235 241 256 262 248 256
50 39 36 31 26 25 31 21 27 31 46 47 41 45 40 293 267 221 209 160 161 190 142 150 215 233 251 250 267 254 240 231 231 236 227 240 248 244 246 255 262 264 260 267
40 34 29 24 19 13 14 15 20 37 34 29 37 34 23 351 308 284 294 271 197 153 137 77 167 208 227 233 229 223 230 245 252 257 259 260 254 254 253 255 253 256 270 265
356 355 3 13 11 10 29 32 29 34 19 14 10 8 7 1 332 287 270 243 212 200 204 149 148 200 251 255 262 267 275 279 286 287 277 253 248 246 244 246 249 258 258 245
3 11 6 350 347 356 357 10 16 22 20 6 347 355 349 327 325 319 290 250 253 264 267 252 251 239 245 267 265 272 285 304 275 242 248 275 285 287 265 250 249 250 258 251
343 351 353 3 6 4 352 329 332 332 324 360 3 343 339 343 323 302 296 314 290 274 276 268 270 271 259 272 266 287 285 301 260 236 246 275 286 288 285 271 252 242 245 247
336 333 327 336 321 345 341 346 2 350 326 317 318 325 325 312 316 295 287 290 295 281 279 272 276 272 270 272 274 271 275 285 263 237 254 274 284 280 277 298 274 256 246 243